Location: Cargill Incorporated Elevator
(42.7294°N, 93.7333°W)
Time: 04:39:27
(UTC+00:00)

NOSS 2-2 (C) - Pass Details

Date: 19 January 2026
Orbit: 379 x 1692 km, 63.3° (Epoch: 15 February)

Event Time Altitude Azimuth Distance (km) Brightness Sun altitude
Rises 12:17:53 0° 215° (SW) 2,680 6.6 -15.0°
Reaches altitude 10° 12:20:16 10° 215° (SW) 1,649 5.5 -14.6°
Maximum altitude 12:23:47 89° 308° (NW) 421 2.7 -13.9°
Drops below altitude 10° 12:26:48 10° 36° (NE) 1,417 5.7 -13.4°
Sets 12:28:43 0° 36° (NE) 2,258 6.7 -13.1°
